[[{"header":{"parameterUnit":"m.s-1","parameterCategory":1,"la1":30.2991,"la2":30.254,"lo1":-89.0895,"lo2":-89.0444,"dy":0.0017,"dx":0.0017,"nx":28,"ny":28,"refTime":"2023-03-29T21:00:00:Z","depth":0,"parameterNumber":2,"parameterNumberName":"U-component_of_WINDS"},"data":[0,0,0,0,0,0,0,0,0,0,0,0,0,0,0,0,0,0,0,0,0,0,0,0,0,0,0,0,0,0,0,0,0,0,0,0,0,0,0,0,0,0,0,0,0,0,0,0,0,0,0,0,0,0,0,0,0,0,-1.969,-1.969,0,-1.9727,-1.9728,-1.9728,-1.9617,-1.9613,-1.961,-1.9607,-1.9648,-1.9653,-1.9657,0,0,0,0,0,0,0,0,0,0,0,0,0,-1.9524,-1.9527,-1.969,-1.969,-1.9691,-1.9727,-1.9728,-1.9728,-1.9617,-1.9613,-1.9609,-1.9605,-1.9647,-1.9652,-1.9657,0,0,0,0,0,0,0,0,0,0,0,0,0,-1.9582,-1.9529,-1.969,-1.964,-1.9636,-1.9727,-1.9728,-1.9728,-1.9618,-1.9613,-1.9608,-1.9603,-1.9645,-1.9652,-1.9658,-1.9801,0,0,-1.9678,-1.968,0,0,0,0,0,0,0,0,-1.9579,-1.9588,-1.9647,-1.9643,-1.9639,-1.9662,-1.9684,-1.9753,-1.962,-1.9625,-1.9607,-1.9601,-1.9657,-1.9662,-1.9681,-1.9802,-1.9804,-1.9678,-1.9682,-1.9685,-1.9687,0,0,0,0,0,0,0,-1.9575,-1.9586,-1.9705,-1.9648,-1.9643,-1.9616,-1.9619,-1.9697,-1.967,-1.9624,-1.9616,-1.9622,-1.9654,-1.9675,-1.9681,-1.9805,-1.9678,-1.9684,-1.9688,-1.969,-2.0045,-2.005,0,0,0,0,0,0,-1.9577,-1.9584,-1.9703,-1.9706,-1.9596,-1.9623,-1.9626,-1.966,-1.9668,-1.9665,-1.9626,-1.9617,-1.9666,-1.9674,-1.9682,-1.985,-1.9685,-1.9691,-1.9695,-2.0039,-2.0046,-2.0052,0,0,0,0,0,0,-1.9574,-1.9589,-1.9702,-1.9642,-1.9655,-1.9631,-1.967,-1.9663,-1.9684,-1.967,-1.9665,-1.9652,-1.9663,-1.9673,-1.9772,-1.985,-1.9694,-1.97,-2.0033,-2.0041,-2.0049,-2.0186,0,0,0,0,0,0,-1.957,-1.9589,-1.9642,-1.9645,-1.9658,-1.9791,-1.9675,-1.9668,-1.9695,-1.9683,-1.9693,-1.969,-1.9659,-1.9763,-1.9778,-1.9856,-1.9705,-2.0026,-2.0037,-2.0047,-2.0175,-2.0198,-2.0218,0,0,0,0,0,-1.9564,-1.968,-1.9645,-1.9661,-1.9725,-1.9795,-1.9803,-1.9765,-1.9702,-1.9756,-1.9747,-1.969,-1.9838,-1.9774,-1.979,-1.9871,-2.0021,-2.0034,-2.0046,-2.0165,-2.0194,-2.0218,0,0,0,0,0,0,-1.9689,-1.9679,-1.9641,-1.9761,-1.978,-1.9777,-1.9844,-1.9797,-1.9835,-1.9822,-1.9773,-1.9777,-1.9885,-1.9887,-1.9815,-2.0009,-1.9919,-1.9935,-2.0004,-2.0031,-2.0052,-2.005,-1.971,0,0,0,0,0,-1.973,-1.9787,-1.9776,-1.9883,-1.9894,-1.9868,-1.9897,-1.9866,-1.9884,-1.9891,-1.9889,-1.991,-1.9961,-1.9996,-2.0042,-2.0174,-2.0175,-2.0237,-2.0259,-2.0277,-2.0293,-2.0363,-2.039,-2.0093,-2.0093,-2.0093,0,0,-1.9816,-1.9818,-1.9858,-1.9908,-1.9919,-1.998,-1.9875,-1.9944,-1.999,-1.9902,-1.9995,-1.9994,-2.0014,-2.013,-2.0181,-2.0135,-2.0375,-2.0293,-2.0308,-2.0313,-2.0378,-2.0407,-2.0432,-2.0102,-2.01,-2.0099,0,0,-2.0005,-2.0012,-2.0101,-2.0114,-2.0131,-2.0112,-2.0134,-2.0138,-2.0134,-2.0226,-2.0161,-2.0214,-2.0303,-2.032,-2.034,-2.0533,-2.0483,-2.055,-2.0665,-2.0733,-2.0757,-2.0777,-2.0847,-2.0873,-2.0565,-2.0565,-2.0565,0,-2.011,-2.0199,-2.0154,-2.0227,-2.0251,-2.0173,-2.0264,-2.0279,-2.0311,-2.033,-2.0278,-2.0388,-2.0395,-2.0514,-2.0561,-2.058,-2.0604,-2.0549,-2.0757,-2.0777,-2.0796,-2.0862,-2.0888,-2.0573,-2.0572,-2.0571,-2.0571,0,-2.0328,-2.039,-2.0461,-2.0493,-2.0524,-2.0607,-2.0574,-2.0612,-2.0578,-2.0565,-2.0659,-2.0665,-2.0712,-2.0737,-2.0705,-2.0852,-2.0823,-2.0765,-2.0673,-2.0833,-2.0894,-2.0919,-2.0585,-2.0582,-2.0579,-2.0577,0,0,-2.0598,-2.0602,-2.0629,-2.0642,-2.0655,-2.0703,-2.0781,-2.0825,-2.0859,-2.0883,-2.0948,-2.1024,-2.097,-2.0993,-2.0962,-2.1022,-2.1176,-2.0957,-2.0956,-2.0998,-2.1338,-2.1383,-2.1413,-2.1141,-2.1146,-2.115,-2.1337,0,-2.0784,-2.0917,-2.0878,-2.1012,-2.107,-2.0996,-2.1064,-2.108,-2.1069,-2.1117,-2.1105,-2.116,-2.1085,-2.1098,-2.1154,-2.1145,-2.1244,-2.1131,-2.1202,-2.1206,-2.1201,-2.1445,-2.1492,-2.1669,-2.1361,-2.1365,-2.1368,0,-2.1019,-2.1052,-2.1192,-2.1194,-2.1217,-2.1279,-2.1315,-2.1361,-2.1378,-2.1366,-2.1391,-2.1347,-2.1424,-2.1331,-2.1437,-2.1362,-2.1388,-2.1388,-2.1394,-2.14,-2.1297,-2.1459,-2.1724,-2.1751,-2.1405,-2.1402,-2.1399,0,-2.1203,-2.1282,-2.1375,-2.1389,-2.1394,-2.1439,-2.1444,-2.1454,-2.1483,-2.1515,-2.1533,-2.1575,-2.1598,-2.1631,-2.16,-2.1535,-2.1711,-2.1615,-2.1704,-2.1706,-2.1746,-2.1744,-2.2021,-2.1762,-2.1761,-2.1761,-2.176,0,-2.1416,-2.1504,-2.1458,-2.1516,-2.1613,-2.1567,-2.1665,-2.1661,-2.1671,-2.1727,-2.1665,-2.1719,-2.1673,-2.1724,-2.17,-2.1792,-2.1802,-2.1796,-2.1788,-2.1802,-2.1803,-2.182,-2.1807,-2.1768,-2.1766,-2.1765,-2.1764,0,-2.1638,-2.161,-2.1708,-2.1704,-2.1705,-2.1777,-2.1774,-2.1828,-2.1812,-2.1884,-2.1898,-2.1874,-2.193,-2.1901,-2.1959,-2.1943,-2.2062,-2.2038,-2.2057,-2.2051,-2.2142,-2.2134,-2.244,-2.2478,-2.2194,-2.2196,-2.2199,0,-2.1776,-2.1843,-2.1846,-2.1878,-2.1886,-2.194,-2.1968,-2.1926,-2.1958,-2.1981,-2.2032,-2.2082,-2.212,-2.2213,-2.2202,-2.2246,-2.2222,-2.2326,-2.2229,-2.224,-2.2225,-2.2222,-2.2229,-2.2347,-2.235,-2.2353,-2.2355,0,-2.2025,-2.2008,-2.2051,-2.2089,-2.2125,-2.2153,-2.2176,-2.2207,-2.2164,-2.2204,-2.226,-2.2289,-2.2348,-2.2399,-2.2437,-2.2441,-2.2393,-2.2385,-2.2409,-2.2424,-2.2432,-2.243,-2.2112,-2.2379,-2.2377,-2.2375,-2.2374,-2.2373,-2.221,-2.2265,-2.2276,-2.2326,-2.2338,-2.2362,-2.2412,-2.2401,-2.2447,-2.2491,-2.2462,-2.2529,-2.2542,-2.2588,-2.2599,-2.265,-2.2609,-2.2642,-2.2651,-2.266,-2.2673,-2.2423,-2.2657,-2.2656,-2.2656,-2.2655,-2.2655,0,-2.2456,-2.2459,-2.2505,-2.2539,-2.2578,-2.2526,-2.2549,-2.2586,-2.2644,-2.2661,-2.2699,-2.2763,-2.2812,-2.2803,-2.2848,-2.2891,-2.2869,-2.2904,-2.2901,-2.2903,-2.2707,-2.2683,-2.2921,-2.2921,-2.292,-2.292,-2.292,-2.292,-2.2589,-2.268,-2.2664,-2.276,-2.2762,-2.2825,-2.2843,-2.2864,-2.2877,-2.2951,-2.2991,-2.2984,-2.2991,-2.3035,-2.3078,-2.3074,-2.3094,-2.3137,-2.3126,-2.2943,-2.2917,-2.2892,-2.2869,-2.3142,-2.3142,-2.3317,-2.3319,-2.332]},{"header":{"parameterUnit":"m.s-1","parameterCategory":1,"la1":30.2991,"la2":30.254,"lo1":-89.0895,"lo2":-89.0444,"dy":0.0017,"dx":0.0017,"nx":28,"ny":28,"refTime":"2023-03-29T21:00:00:Z","depth":0,"parameterNumber":3,"parameterNumberName":"V-component_of_WINDS"},"data":[0,0,0,0,0,0,0,0,0,0,0,0,0,0,0,0,0,0,0,0,0,0,0,0,0,0,0,0,0,0,0,0,0,0,0,0,0,0,0,0,0,0,0,0,0,0,0,0,0,0,0,0,0,0,0,0,0,0,-1.8217,-1.8217,0,-1.8226,-1.8226,-1.8226,-1.8223,-1.8223,-1.8223,-1.8223,-1.823,-1.823,-1.8231,0,0,0,0,0,0,0,0,0,0,0,0,0,-1.8196,-1.8196,-1.8217,-1.8217,-1.8218,-1.8226,-1.8226,-1.8226,-1.8223,-1.8223,-1.8223,-1.8223,-1.823,-1.823,-1.8231,0,0,0,0,0,0,0,0,0,0,0,0,0,-1.8205,-1.8196,-1.8217,-1.8217,-1.8217,-1.8226,-1.8226,-1.8226,-1.8223,-1.8223,-1.8223,-1.8222,-1.823,-1.823,-1.8231,-1.824,0,0,-1.8233,-1.8233,0,0,0,0,0,0,0,0,-1.8204,-1.8205,-1.8217,-1.8217,-1.8217,-1.8223,-1.8221,-1.8231,-1.8223,-1.8221,-1.8223,-1.8222,-1.8228,-1.8229,-1.8231,-1.824,-1.8241,-1.8233,-1.8233,-1.8233,-1.8233,0,0,0,0,0,0,0,-1.8204,-1.8205,-1.8221,-1.8217,-1.8217,-1.8216,-1.8217,-1.8223,-1.8226,-1.8221,-1.8221,-1.8222,-1.8228,-1.823,-1.8231,-1.8241,-1.8233,-1.8233,-1.8233,-1.8234,-1.8256,-1.8257,0,0,0,0,0,0,-1.8203,-1.8205,-1.822,-1.8221,-1.821,-1.8216,-1.8217,-1.8222,-1.8226,-1.8226,-1.8222,-1.8222,-1.8229,-1.823,-1.8231,-1.8241,-1.8233,-1.8234,-1.8234,-1.8256,-1.8256,-1.8257,0,0,0,0,0,0,-1.8203,-1.8205,-1.822,-1.8213,-1.8215,-1.8217,-1.8222,-1.8222,-1.8224,-1.8227,-1.8227,-1.8224,-1.8229,-1.823,-1.8238,-1.8241,-1.8234,-1.8234,-1.8256,-1.8256,-1.8257,-1.8262,0,0,0,0,0,0,-1.8202,-1.8204,-1.8209,-1.8213,-1.8215,-1.8227,-1.8222,-1.8222,-1.8225,-1.8225,-1.8229,-1.8229,-1.8229,-1.8237,-1.8238,-1.8242,-1.8235,-1.8255,-1.8256,-1.8256,-1.8261,-1.8262,-1.8263,0,0,0,0,0,-1.8201,-1.821,-1.8209,-1.8211,-1.822,-1.8227,-1.8228,-1.8229,-1.8226,-1.8229,-1.8231,-1.8229,-1.8241,-1.8237,-1.8239,-1.8243,-1.8255,-1.8256,-1.8256,-1.8261,-1.8262,-1.8263,0,0,0,0,0,0,-1.8206,-1.821,-1.821,-1.822,-1.8223,-1.8227,-1.8232,-1.823,-1.8235,-1.8234,-1.8234,-1.8234,-1.8241,-1.8243,-1.8239,-1.8251,-1.8247,-1.8248,-1.825,-1.8251,-1.8252,-1.8251,-1.8235,0,0,0,0,0,-1.8208,-1.8214,-1.8217,-1.8226,-1.8228,-1.8229,-1.8233,-1.8232,-1.8236,-1.8237,-1.8239,-1.8242,-1.8246,-1.8249,-1.8253,-1.8261,-1.8261,-1.8265,-1.8266,-1.8266,-1.8267,-1.827,-1.8271,-1.8259,-1.8259,-1.8259,0,0,-1.8213,-1.8216,-1.822,-1.8227,-1.823,-1.8235,-1.8231,-1.8237,-1.824,-1.8238,-1.8245,-1.8246,-1.8249,-1.8256,-1.826,-1.8258,-1.827,-1.8267,-1.8268,-1.8268,-1.8271,-1.8272,-1.8273,-1.8259,-1.8259,-1.8259,0,0,-1.8224,-1.8227,-1.8234,-1.8237,-1.8241,-1.8242,-1.8243,-1.8247,-1.8247,-1.8254,-1.8252,-1.8256,-1.8263,-1.8265,-1.8267,-1.8277,-1.8275,-1.8278,-1.8283,-1.8286,-1.8287,-1.8288,-1.8291,-1.8292,-1.8279,-1.8279,-1.8279,0,-1.8229,-1.8238,-1.8238,-1.8244,-1.8246,-1.8244,-1.8251,-1.8253,-1.8258,-1.8259,-1.8257,-1.8266,-1.8268,-1.8275,-1.8277,-1.8279,-1.828,-1.8278,-1.8287,-1.8288,-1.8289,-1.8291,-1.8292,-1.8279,-1.8279,-1.8279,-1.8279,0,-1.8243,-1.8249,-1.8254,-1.8258,-1.8262,-1.8268,-1.8268,-1.8271,-1.827,-1.8271,-1.8277,-1.8279,-1.8283,-1.8284,-1.8284,-1.8291,-1.8289,-1.8287,-1.8283,-1.829,-1.8292,-1.8294,-1.828,-1.828,-1.828,-1.828,0,0,-1.8258,-1.8262,-1.8264,-1.8265,-1.8269,-1.8273,-1.8278,-1.8282,-1.8284,-1.8287,-1.829,-1.8296,-1.8294,-1.8296,-1.8295,-1.8298,-1.8304,-1.8295,-1.8295,-1.8296,-1.8311,-1.8312,-1.8313,-1.8303,-1.8303,-1.8303,-1.831,0,-1.8269,-1.8278,-1.8278,-1.8287,-1.8291,-1.8288,-1.8293,-1.8295,-1.8295,-1.8298,-1.8298,-1.8302,-1.8299,-1.83,-1.8303,-1.8303,-1.8307,-1.8303,-1.8305,-1.8306,-1.8304,-1.8315,-1.8316,-1.8323,-1.8311,-1.8312,-1.8312,0,-1.8283,-1.8286,-1.8295,-1.8296,-1.8298,-1.8302,-1.8305,-1.8308,-1.831,-1.831,-1.8311,-1.831,-1.8314,-1.831,-1.8315,-1.8312,-1.8313,-1.8313,-1.8313,-1.8313,-1.8309,-1.8314,-1.8325,-1.8326,-1.8313,-1.8313,-1.8313,0,-1.8291,-1.8298,-1.8304,-1.8305,-1.8307,-1.831,-1.8311,-1.8312,-1.8314,-1.8316,-1.8317,-1.832,-1.8321,-1.8323,-1.8322,-1.8319,-1.8326,-1.8323,-1.8326,-1.8326,-1.8327,-1.8327,-1.8338,-1.8329,-1.8329,-1.8329,-1.8329,0,-1.8303,-1.8308,-1.8307,-1.8311,-1.8316,-1.8316,-1.8321,-1.8321,-1.8322,-1.8325,-1.8323,-1.8326,-1.8324,-1.8326,-1.8326,-1.8329,-1.833,-1.8329,-1.8329,-1.8329,-1.8329,-1.833,-1.8329,-1.8329,-1.8329,-1.8329,-1.8329,0,-1.8313,-1.8313,-1.8319,-1.8321,-1.8321,-1.8325,-1.8325,-1.8328,-1.8328,-1.8332,-1.8332,-1.8332,-1.8334,-1.8333,-1.8336,-1.8335,-1.8339,-1.8339,-1.8339,-1.8339,-1.8341,-1.8341,-1.8353,-1.8354,-1.8344,-1.8345,-1.8345,0,-1.832,-1.8324,-1.8326,-1.8328,-1.8329,-1.8332,-1.8333,-1.8332,-1.8334,-1.8335,-1.8338,-1.834,-1.8342,-1.8345,-1.8345,-1.8346,-1.8345,-1.8349,-1.8346,-1.8345,-1.8344,-1.8344,-1.8344,-1.835,-1.835,-1.835,-1.835,0,-1.8333,-1.8332,-1.8335,-1.8337,-1.8339,-1.8341,-1.8343,-1.8344,-1.8343,-1.8345,-1.8347,-1.8348,-1.835,-1.8352,-1.8353,-1.8354,-1.8351,-1.8351,-1.8352,-1.8352,-1.8352,-1.8351,-1.834,-1.8351,-1.8351,-1.8351,-1.8351,-1.8351,-1.8341,-1.8344,-1.8345,-1.8348,-1.8349,-1.835,-1.8352,-1.8352,-1.8354,-1.8356,-1.8355,-1.8357,-1.8358,-1.8359,-1.8359,-1.8361,-1.8359,-1.836,-1.836,-1.8361,-1.8361,-1.8352,-1.8361,-1.8361,-1.8361,-1.8361,-1.8361,0,-1.8352,-1.8353,-1.8355,-1.8357,-1.8359,-1.8357,-1.8358,-1.836,-1.8362,-1.8362,-1.8364,-1.8366,-1.8367,-1.8367,-1.8368,-1.8369,-1.8368,-1.8369,-1.8369,-1.8369,-1.8362,-1.8361,-1.837,-1.837,-1.837,-1.837,-1.837,-1.837,-1.8359,-1.8363,-1.8362,-1.8366,-1.8367,-1.8369,-1.837,-1.837,-1.8371,-1.8373,-1.8374,-1.8374,-1.8374,-1.8375,-1.8375,-1.8375,-1.8375,-1.8377,-1.8376,-1.837,-1.8369,-1.8368,-1.8367,-1.8377,-1.8377,-1.8382,-1.8382,-1.8382]}]]